EHI
10 24 36 36 32 31 27 22 24 29 36 42 46 48 49 47 42 38 31 22 13 5 1 0 0 0 1 0 0 0 0 0 0 0 1 1 2 5 9 8 3 0 0
20 32 44 43 38 31 22 16 18 24 30 36 40 43 45 43 38 35 28 20 10 3 1 0 0 0 1 0 0 0 0 0 0 1 2 2 2 4 6 6 4 1 0
43 49 55 53 45 33 18 10 10 14 20 25 28 32 35 34 31 28 23 15 6 2 1 0 0 0 0 0 0 0 0 0 0 1 2 2 2 3 5 5 4 1 0
64 63 62 61 54 38 21 11 7 7 10 14 16 18 21 23 22 21 16 9 4 2 1 0 0 0 1 1 0 0 0 0 0 0 1 0 1 2 3 4 3 2 1
69 67 67 70 64 47 29 16 8 4 3 5 6 7 10 12 14 13 9 4 2 3 3 1 0 1 2 1 0 0 0 0 0 0 0 0 0 1 3 3 2 2 1
67 66 71 77 71 55 37 22 12 6 3 1 1 2 4 6 7 7 4 1 0 2 3 1 0 1 1 1 0 0 0 0 0 0 0 0 0 1 4 4 2 1 1
72 70 76 80 73 59 43 29 18 11 6 2 1 2 3 4 4 3 2 0 0 0 1 0 0 0 0 0 0 0 0 0 0 0 0 0 0 1 4 5 4 3 2
81 77 77 77 70 61 51 36 25 17 11 5 2 3 3 2 2 1 1 0 0 0 0 0 0 0 0 0 0 0 0 1 0 0 0 0 1 2 5 8 8 6 4
89 85 80 75 69 64 57 46 33 24 17 10 5 3 2 1 0 0 0 0 0 0 0 0 0 0 0 0 0 0 0 0 0 0 0 0 3 6 8 12 13 9 7
91 89 85 80 75 71 65 54 43 32 24 17 9 4 2 0 0 0 0 0 0 0 0 0 0 0 0 0 0 0 0 0 0 0 0 1 6 10 12 14 13 10 8
89 89 88 85 82 79 74 66 56 45 35 26 18 9 4 1 0 0 0 0 0 0 0 0 0 0 0 0 0 0 0 0 0 0 0 3 8 13 15 15 13 11 10
86 85 85 85 83 82 81 79 73 62 50 39 28 17 10 4 1 0 0 0 0 0 0 0 0 0 0 0 0 0 0 0 0 0 1 6 11 14 17 18 16 14 12
84 81 80 80 78 78 81 84 83 76 64 50 36 24 14 6 2 1 0 0 0 0 0 0 0 0 0 0 0 0 0 0 0 0 2 8 13 16 18 19 17 15 13
77 75 73 72 72 73 76 80 82 77 67 53 38 25 14 6 3 1 0 0 0 1 1 1 1 0 0 0 0 0 0 0 0 0 3 9 13 15 17 16 14 13 11
64 63 61 61 62 64 67 72 72 66 57 45 33 22 12 6 2 1 0 0 1 2 2 2 1 0 0 0 0 0 0 0 0 0 2 7 11 15 16 14 11 10 9
52 50 49 49 50 52 57 61 60 53 42 31 23 18 11 5 3 2 0 0 1 3 3 1 1 0 0 0 0 0 0 0 0 0 1 5 10 15 16 13 10 10 11
47 44 42 43 43 44 49 51 49 42 30 19 15 13 9 5 4 3 2 1 2 2 2 1 0 0 0 0 0 0 0 0 0 0 0 2 7 12 13 11 9 11 12
43 40 38 39 39 41 45 46 42 34 23 13 11 11 8 5 4 4 4 2 1 1 1 0 0 0 0 0 0 0 0 0 0 0 0 1 3 5 5 5 6 8 9
37 34 32 32 32 35 41 43 37 28 18 12 10 10 7 4 3 3 3 2 1 0 0 0 0 0 0 0 0 0 0 0 0 0 0 0 0 0 0 1 2 4 4
31 29 27 26 26 28 33 36 33 25 15 10 9 8 5 3 1 1 1 1 1 0 0 0 0 0 0 0 0 0 0 0 0 0 0 0 0 0 0 0 1 1 1
23 23 23 22 21 23 25 27 27 21 13 8 6 5 3 1 0 0 0 0 0 0 0 0 0 0 0 0 0 0 0 0 0 0 0 0 0 0 0 0 0 0 0
13 14 16 16 17 18 20 21 20 15 10 6 6 5 3 2 1 0 0 0 0 0 0 0 0 0 0 0 0 0 0 0 0 0 0 0 0 0 0 0 0 0 0
6 7 10 11 11 13 15 16 14 11 8 6 6 5 4 2 1 0 0 0 0 0 0 0 0 0 0 0 0 0 0 0 0 0 0 0 0 0 0 0 0 0 0
3 4 5 6 7 8 10 11 10 8 6 5 4 3 3 1 0 0 0 0 0 0 0 0 0 0 0 0 0 0 0 0 0 0 0 0 0 0 0 0 0 0 0
2 2 3 4 4 4 6 7 6 6 5 3 2 1 1 0 0 0 0 0 0 0 0 0 0 0 0 0 0 0 0 0 0 0 0 0 0 0 0 0 0 0 0
1 1 2 3 3 4 4 5 5 5 4 2 1 0 0 0 0 0 0 0 0 0 0 0 0 0 0 0 0 0 0 0 0 0 0 0 0 0 0 0 0 0 0
Wind_Speed
9 12 17 17 17 16 17 17 17 18 18 18 18 18 18 18 18 18 17 16 15 14 14 13 12 12 12 13 14 15 16 16 16 17 16 16 15 15 16 16 15 11 15
13 13 18 18 18 17 17 17 17 17 17 18 18 18 18 17 17 16 16 15 14 14 13 13 12 13 13 13 14 14 15 15 15 15 16 14 14 14 14 15 14 9 14
15 14 17 19 19 18 18 17 17 17 17 17 17 17 17 16 16 15 15 14 13 13 13 12 12 12 12 13 13 13 14 14 14 14 13 7 9 14 14 15 15 14 13
17 13 15 20 19 19 19 18 17 17 17 17 17 17 16 16 15 14 14 14 13 12 12 12 12 12 12 12 12 12 12 12 11 12 6 5 6 13 15 14 14 13 12
15 13 15 21 19 19 19 19 18 17 17 17 17 17 16 15 14 14 14 14 13 12 12 12 11 11 11 11 10 10 9 9 8 6 4 4 5 12 14 13 13 12 11
14 12 15 21 19 18 19 19 18 18 17 17 17 16 15 15 14 14 13 13 13 12 12 11 11 10 10 9 8 8 7 5 4 3 4 5 5 11 13 13 12 12 11
13 11 14 19 18 18 18 18 18 18 17 16 16 16 15 14 13 13 13 13 13 12 12 11 11 9 9 8 7 6 4 3 3 2 3 5 6 12 13 13 12 11 10
16 12 12 18 19 18 18 17 17 17 16 16 16 15 15 14 13 13 13 13 12 12 12 11 10 9 8 7 6 4 3 1 2 1 4 5 8 12 13 12 11 11 10
15 13 11 11 14 17 17 17 16 16 16 15 15 15 15 14 14 14 13 12 12 12 11 11 10 9 8 6 5 3 2 0 1 1 4 5 9 13 13 12 11 11 10
12 12 11 11 9 9 11 17 17 17 16 16 16 16 16 15 14 14 12 11 12 12 11 10 10 9 7 6 5 3 3 0 1 1 3 6 12 13 13 13 12 11 10
9 8 10 10 10 9 8 13 14 16 15 16 14 16 14 7 7 8 11 12 12 12 11 10 9 8 7 6 6 5 3 1 1 1 3 8 13 13 13 13 12 11 11
10 9 8 9 9 9 9 8 6 8 8 7 6 8 6 5 5 8 10 13 13 12 11 10 10 8 6 2 4 5 2 2 1 2 4 10 13 13 13 12 12 12 11
11 10 9 8 9 9 6 7 5 4 5 6 7 7 5 5 4 5 4 6 7 8 5 6 6 3 3 3 3 3 3 2 2 3 5 12 12 12 12 12 12 11 11
9 9 8 8 8 7 5 6 6 5 5 5 6 7 6 4 4 4 4 4 4 3 4 3 3 4 4 4 4 4 4 3 2 2 4 12 11 11 10 11 10 10 10
8 9 9 9 9 7 6 5 6 5 6 6 6 7 7 5 5 5 5 4 5 4 4 4 4 4 4 4 4 4 4 3 2 2 3 9 9 8 8 8 8 8 8
7 7 7 7 8 7 5 5 5 5 5 5 5 7 8 6 5 6 5 5 5 5 5 5 5 5 4 3 3 3 2 1 2 3 2 4 6 6 5 4 4 4 3
6 6 6 7 7 7 7 5 4 4 4 4 4 5 6 6 6 6 5 5 5 5 5 4 4 3 3 3 2 2 1 2 3 4 4 3 3 5 6 5 4 4 3
4 5 4 5 6 6 6 5 3 3 3 3 3 3 5 5 5 5 5 5 5 4 4 4 3 3 3 3 2 1 2 3 5 5 4 4 3 4 6 8 8 7 6
6 4 4 2 3 5 5 5 4 3 3 2 2 2 3 4 4 4 5 5 5 4 3 4 3 4 4 3 3 3 3 3 4 5 6 6 5 5 4 8 10 10 9
7 6 4 2 1 2 3 4 3 3 2 2 2 1 2 2 3 3 4 4 4 3 3 3 3 3 4 5 5 5 5 5 4 5 6 6 6 7 7 7 6 9 13
9 8 6 4 1 1 2 3 3 2 2 2 1 1 1 1 1 2 2 3 4 4 4 4 3 4 4 5 5 5 5 6 6 5 5 5 7 7 7 7 6 5 6
9 8 7 5 2 1 2 3 2 3 2 2 2 2 2 1 1 2 2 2 3 3 4 4 4 3 3 4 4 4 3 3 5 6 4 5 6 5 7 7 7 7 5
9 8 6 5 3 2 1 2 3 3 3 2 2 1 1 1 1 1 2 1 2 3 3 4 4 5 4 2 3 5 5 5 3 3 5 5 5 5 5 5 6 6 6
9 8 7 6 4 3 2 3 4 4 4 3 2 2 2 3 3 3 2 1 2 2 3 3 3 3 5 3 1 1 3 6 6 4 2 3 5 5 4 5 5 5 5
8 7 7 6 7 5 4 4 4 4 4 4 3 4 4 4 4 4 3 2 2 3 3 3 3 3 3 3 3 2 3 3 4 5 5 3 3 3 3 3 3 3 3
8 7 7 7 7 7 6 6 5 5 5 5 5 4 4 4 4 6 5 4 4 4 4 4 5 5 5 5 4 3 3 3 3 4 5 5 3 2 2 2 2 2 1
Wind_Direction
162 164 162 155 148 142 137 132 126 122 120 117 115 114 114 114 116 119 121 122 123 124 123 121 120 117 115 114 114 115 116 116 117 118 118 117 115 114 112 110 107 105 106
155 161 160 155 152 147 143 139 135 130 127 124 122 120 119 118 119 121 122 123 123 123 122 121 120 118 117 117 117 119 121 122 122 122 119 115 112 114 118 114 111 112 111
151 158 160 157 155 152 148 145 142 138 134 130 127 125 123 123 122 123 123 123 124 124 124 123 120 119 119 119 120 121 123 125 124 121 114 106 107 111 118 120 117 116 114
152 156 160 159 157 156 153 150 147 144 140 137 133 131 129 128 127 127 127 127 127 126 127 126 123 123 122 122 123 123 126 128 127 122 113 117 115 118 121 123 122 121 119
149 155 162 160 160 159 157 155 153 150 146 143 140 138 136 134 132 131 133 133 132 130 129 128 128 127 127 125 125 125 128 132 135 126 128 128 120 130 129 130 129 128 127
150 155 161 161 162 161 160 158 157 154 152 150 147 144 142 141 139 137 138 138 138 136 135 134 133 132 131 129 127 125 128 135 127 113 130 141 141 143 140 139 137 137 137
149 153 159 160 161 162 163 162 161 159 157 155 153 150 148 146 144 143 144 144 143 142 142 141 140 138 135 133 132 129 128 135 130 136 154 161 166 157 150 147 145 146 146
148 149 157 161 162 165 166 165 164 162 161 160 158 155 153 151 150 149 149 150 149 149 148 147 146 146 144 142 141 137 126 133 108 134 162 170 180 165 158 156 155 155 156
144 146 152 159 164 169 169 168 166 165 164 163 161 159 158 157 157 156 155 155 154 154 153 152 151 152 152 154 156 159 164 173 66 153 171 173 184 172 166 165 165 165 165
142 149 154 157 158 163 169 172 170 168 168 167 166 165 164 164 164 163 159 160 160 160 161 161 160 163 166 171 180 199 222 309 74 151 163 184 184 179 173 172 174 175 175
141 150 157 159 158 160 166 176 173 173 172 170 171 171 168 165 164 166 168 169 169 168 170 171 172 174 181 193 205 221 238 186 145 184 187 193 186 186 182 180 182 185 186
155 160 160 160 163 163 173 169 168 174 172 171 171 171 165 161 170 170 177 178 177 178 180 183 185 187 193 212 234 238 238 224 204 202 211 200 192 194 190 187 190 193 196
158 160 161 163 166 170 172 163 167 170 170 172 172 168 164 166 174 173 174 181 181 182 181 188 190 194 201 216 234 240 243 236 219 215 215 200 197 199 196 194 196 200 202
151 157 157 162 163 168 164 166 166 168 173 178 178 174 170 176 183 180 181 180 178 177 179 183 188 201 217 229 234 240 245 232 220 206 203 195 197 200 196 195 197 202 208
154 162 161 162 163 168 162 169 173 177 180 180 179 185 184 184 186 186 184 182 185 183 186 190 196 206 221 230 234 235 237 224 204 191 188 189 188 187 190 195 200 208 216
151 160 156 160 164 161 169 178 178 182 180 181 185 190 191 191 184 184 183 183 189 193 196 197 199 202 212 212 215 213 209 181 147 148 147 172 179 172 175 174 182 196 211
147 149 165 166 160 168 170 172 172 176 171 179 188 191 191 193 186 183 183 186 193 193 194 194 201 193 196 197 192 187 148 127 116 114 113 111 120 120 117 109 100 97 99
114 125 145 174 170 173 165 160 156 165 162 171 180 187 191 192 188 181 179 186 185 177 183 185 191 181 183 171 142 111 93 96 94 97 96 97 92 87 85 90 85 78 75
70 77 103 136 173 183 166 156 156 144 129 149 170 176 180 176 194 187 184 183 173 172 182 191 186 168 162 150 128 98 83 85 86 90 89 86 83 79 73 76 74 69 67
62 63 58 71 163 188 155 136 133 130 138 134 142 159 180 177 192 198 188 176 165 165 182 184 175 162 151 138 111 86 71 70 67 71 81 80 77 76 69 66 60 57 57
41 45 43 37 35 157 139 140 150 157 144 125 128 105 102 143 182 204 189 178 175 176 187 180 167 157 151 134 111 95 67 60 66 60 66 75 75 75 75 71 66 59 51
32 31 35 40 22 340 155 161 156 134 112 112 86 80 71 124 157 186 171 192 179 165 179 179 163 157 164 159 140 132 129 87 57 51 60 77 76 72 73 72 71 68 58
25 21 23 20 32 23 83 124 118 113 113 109 112 91 59 74 98 98 135 168 159 168 187 186 177 167 170 173 150 147 152 157 124 58 51 63 70 73 71 70 72 69 66
18 11 14 17 20 28 79 112 142 143 135 137 128 111 81 52 48 53 75 115 136 147 156 175 179 172 160 161 130 92 124 137 143 134 82 57 65 69 69 76 73 68 64
19 13 4 11 25 32 65 98 107 115 119 117 110 100 83 63 53 50 58 86 114 117 123 125 122 124 135 146 145 128 96 90 113 133 142 130 78 55 59 67 72 69 64
22 20 14 22 29 32 51 70 88 108 113 107 100 97 82 73 62 57 64 73 83 87 90 94 96 99 100 98 98 102 125 134 139 125 132 135 120 89 58 51 63 71 63